Wind_Speed
33 33 33 34 35 35 36 37 38 38 38 39 40 42 43 44 45 46 46 47 47 47 47 47 47 47 48 49 50 50 51 51 52 54 55 56 56 57 58 59 60 61
33 34 34 34 34 35 36 37 37 38 38 39 40 41 42 43 44 45 46 46 46 46 46 46 46 47 48 49 49 50 51 52 53 54 56 57 57 58 59 60 61 62
34 34 34 34 34 35 36 36 37 37 38 39 39 40 41 42 43 44 44 45 45 46 45 46 46 47 47 48 49 50 51 52 54 55 57 57 58 59 60 62 63 64
35 35 34 34 34 35 35 36 36 36 37 37 39 40 40 41 42 43 43 44 44 45 45 45 46 46 47 48 49 50 51 53 54 56 57 58 59 61 62 63 64 65
35 35 35 35 36 36 36 35 35 35 36 38 40 40 40 41 42 42 43 43 44 45 45 45 46 46 47 48 49 50 52 53 55 57 58 59 61 62 63 65 66 67
36 36 37 38 38 38 37 36 36 37 38 39 40 41 41 41 41 42 43 43 44 45 46 46 46 46 47 48 50 51 53 54 56 58 59 61 62 63 65 66 67 68
37 37 37 38 38 38 38 38 39 40 41 41 41 41 42 42 42 43 43 44 45 46 46 47 47 48 49 50 51 52 54 56 58 59 61 62 64 65 66 68 69 70
36 37 37 37 38 38 39 40 41 42 43 42 42 42 42 42 42 43 44 44 45 46 47 48 49 49 50 51 53 54 56 58 60 61 62 64 65 66 68 69 69 70
38 38 38 39 39 40 41 42 43 43 44 44 44 44 43 43 43 44 45 45 46 47 48 49 50 51 52 53 54 56 58 60 61 62 64 65 66 67 68 69 69 70
39 39 40 40 41 42 42 43 43 44 44 45 45 45 45 45 45 46 46 46 47 48 48 49 51 52 53 54 56 58 59 60 62 63 65 66 67 67 68 69 69 70
39 40 41 41 42 43 43 43 43 44 45 45 46 46 46 47 47 47 48 48 48 49 49 50 51 53 54 56 57 58 59 61 63 64 65 66 67 67 68 69 70 71
40 41 42 43 43 43 43 43 44 44 45 46 46 47 47 48 48 49 50 49 49 50 50 51 52 54 55 57 58 59 60 62 64 65 66 66 67 68 70 70 70 70
42 43 44 44 44 44 44 44 44 45 45 46 46 47 47 48 49 50 51 51 51 51 51 52 53 55 56 58 59 60 61 63 64 65 67 68 69 71 71 70 68 68
44 44 44 45 45 45 45 45 45 45 46 46 47 47 47 48 50 51 52 53 52 52 52 52 53 55 57 58 60 61 62 64 66 67 68 69 70 70 69 67 68 69
46 45 45 45 45 45 45 45 46 46 47 47 47 48 49 50 51 52 53 54 53 52 53 53 54 55 57 58 60 62 64 66 67 67 68 68 68 68 68 68 70 72
47 46 46 46 45 45 46 46 46 47 47 48 48 49 50 51 52 53 53 54 54 53 54 54 54 55 57 60 63 64 65 66 66 67 67 68 68 69 69 69 71 74
46 46 46 46 45 45 46 46 47 47 48 49 49 51 51 52 53 53 53 53 53 53 53 54 56 59 61 63 64 64 64 66 67 68 68 68 68 68 69 71 74 77
45 46 46 46 46 46 47 47 47 48 49 49 50 50 50 50 51 51 51 51 51 51 52 55 59 60 60 61 62 63 65 68 69 69 69 68 68 69 71 73 76 78
45 45 46 47 47 47 48 47 47 48 48 48 48 48 48 49 49 50 50 50 49 50 51 53 56 57 57 59 62 65 67 69 69 68 68 68 70 71 73 75 77 78
46 46 46 47 48 48 48 48 47 47 46 46 47 48 49 50 50 51 51 51 51 52 53 54 56 57 58 61 65 67 69 68 68 69 70 72 73 74 75 77 78 77
48 47 47 48 49 49 49 48 47 46 46 47 48 50 51 52 53 53 53 52 53 54 56 58 60 62 64 67 69 70 70 70 71 72 73 73 74 75 76 76 74 74
50 49 49 49 49 49 49 49 48 48 48 49 50 52 54 54 54 54 52 51 53 56 59 61 62 64 65 65 66 66 67 68 70 70 70 70 72 74 74 74 74 75
51 51 50 50 50 50 50 50 49 50 51 52 53 55 56 55 53 52 51 51 53 56 59 60 61 61 61 61 63 65 67 69 70 70 70 71 73 75 77 78 80 82
51 51 51 51 51 51 51 52 52 53 54 55 56 57 56 54 53 53 53 54 56 57 59 60 61 62 64 65 67 68 69 71 72 72 72 74 76 79 81 83 82 81
52 53 53 53 53 54 54 55 55 56 57 58 58 56 54 53 53 53 54 55 57 59 60 62 63 64 65 66 67 68 68 69 70 72 73 76 78 80 80 79 76 74
56 56 57 57 57 57 57 58 58 59 60 59 58 56 54 53 54 54 56 56 57 59 60 61 62 62 63 64 66 67 68 69 71 73 74 76 77 77 76 74 73 72
Wind_Direction
283 283 283 283 283 283 282 282 282 282 283 283 283 282 282 281 280 279 278 277 277 277 276 276 275 275 275 274 274 274 275 275 275 276 277 279 280 281 282 283 283 284
281 282 283 283 284 284 284 284 283 284 284 284 284 284 283 282 281 280 279 277 277 276 276 275 275 274 274 274 274 274 274 274 275 276 277 278 280 281 282 283 284 285
279 280 281 282 283 284 284 284 284 285 284 284 285 284 284 284 283 282 281 279 277 276 276 274 273 273 273 273 273 273 273 274 274 276 277 279 280 281 282 283 284 285
279 279 280 281 282 282 283 283 283 284 284 285 285 285 285 285 284 283 282 281 279 277 275 274 273 272 272 272 272 272 273 273 275 276 278 279 281 281 282 284 285 286
281 281 281 281 282 281 281 282 282 283 285 286 286 285 285 284 284 284 283 282 280 278 277 275 274 273 272 272 272 272 273 274 275 277 278 280 281 282 283 284 285 286
281 282 282 283 283 282 281 281 281 283 285 285 285 285 285 285 285 284 283 282 281 279 278 277 275 274 273 273 273 273 274 275 276 278 279 280 281 282 283 285 286 288
281 282 283 283 283 281 280 280 281 283 284 284 284 284 285 285 285 284 283 282 281 280 279 278 277 276 275 275 275 275 276 277 278 278 279 280 282 283 284 286 287 288
281 282 283 282 281 279 279 279 280 282 284 284 284 284 284 285 285 284 284 283 282 281 280 279 278 277 277 277 277 277 278 278 278 279 280 282 283 284 285 287 288 289
282 282 282 282 281 280 280 280 282 283 283 283 283 284 285 286 286 286 285 285 283 282 281 280 279 278 277 277 277 278 278 278 279 280 281 283 284 285 286 288 289 291
282 283 283 282 282 281 281 281 281 281 282 282 283 284 285 285 286 287 287 286 285 283 282 280 279 278 277 277 277 277 278 279 280 282 283 284 285 286 288 289 290 292
282 283 282 282 281 280 280 280 279 279 280 281 281 283 283 284 285 286 286 286 285 283 282 281 280 279 279 278 277 278 279 280 281 282 283 285 286 288 289 290 291 292
281 281 281 281 281 280 279 279 278 278 278 279 279 280 281 282 283 284 285 285 285 283 283 282 282 281 280 279 280 281 282 282 283 284 285 286 288 288 289 290 292 293
280 280 280 280 280 279 279 278 277 277 277 277 278 279 280 281 283 284 284 285 284 284 283 283 282 282 282 281 282 282 282 283 284 285 286 287 288 288 289 290 292 294
279 278 278 278 278 278 278 278 277 277 278 278 279 280 281 282 283 284 284 284 284 283 283 283 283 282 282 282 282 282 283 284 284 284 284 286 287 288 289 292 294 294
279 278 278 277 277 278 278 278 279 279 280 280 281 282 283 283 284 284 284 283 283 283 282 282 282 282 282 282 281 281 281 281 282 282 284 286 287 288 290 292 293 293
280 279 278 278 278 279 279 280 280 281 281 282 283 283 284 285 285 284 284 283 283 282 281 282 283 281 280 279 278 278 278 280 282 283 285 287 288 289 291 292 292 291
280 281 281 280 280 280 281 281 281 282 283 283 283 284 284 285 285 285 285 285 284 282 282 283 283 280 278 277 278 279 280 282 283 284 285 286 288 290 291 291 290 289
281 281 282 282 282 282 282 283 283 284 283 283 283 284 285 286 286 287 287 286 285 283 282 282 281 279 278 279 280 280 281 281 281 282 284 287 289 290 290 290 290 288
281 282 282 283 283 284 284 284 284 284 283 283 284 286 287 288 287 288 288 288 287 283 279 277 277 276 278 279 281 281 281 281 282 284 287 289 289 289 289 289 288 287
283 282 282 283 283 284 284 284 284 284 284 285 286 288 288 288 288 288 288 288 286 283 280 279 278 278 279 281 281 281 282 283 286 288 288 288 288 288 288 288 288 288
284 283 282 282 283 283 283 284 284 284 285 287 288 289 288 288 288 287 287 286 285 283 282 281 280 279 279 279 280 281 283 285 287 287 287 288 289 289 289 288 288 288
284 283 283 282 283 283 283 284 285 286 287 287 288 288 288 288 287 286 285 285 284 284 284 283 282 282 282 283 284 286 287 287 287 288 289 290 289 288 287 286 285 283
283 283 283 283 283 284 284 285 286 287 287 287 287 287 287 286 285 284 284 283 282 282 283 284 285 285 285 286 286 287 287 288 288 289 289 289 287 285 284 283 282 281
283 283 283 284 284 285 286 286 287 286 286 286 286 285 285 283 282 283 282 281 279 279 280 280 281 281 282 283 284 285 285 286 286 287 287 286 285 284 283 283 282 282
284 284 285 285 286 286 286 286 286 286 286 285 285 283 282 281 280 281 281 279 278 278 278 278 278 279 281 283 284 286 286 287 287 287 286 284 284 283 283 283 282 282
284 285 285 286 286 287 287 286 286 285 285 284 282 280 280 280 281 281 281 281 280 280 280 280 281 282 285 287 289 289 289 288 286 285 283 283 282 282 282 282 282 282
Height
5791 5790 5789 5788 5787 5787 5786 5785 5784 5783 5782 5781 5779 5778 5776 5774 5773 5772 5770 5769 5768 5767 5766 5765 5764 5763 5762 5761 5760 5759 5758 5757 5756 5755 5753 5752 5750 5748 5746 5745 5743 5741
5786 5785 5784 5783 5783 5782 5781 5780 5779 5778 5777 5776 5774 5773 5771 5770 5768 5766 5765 5763 5762 5761 5760 5759 5758 5757 5756 5755 5754 5753 5752 5751 5750 5749 5747 5746 5744 5742 5740 5738 5736 5734
5781 5780 5779 5778 5778 5777 5776 5775 5774 5773 5772 5770 5769 5767 5766 5765 5763 5762 5760 5758 5757 5756 5755 5754 5753 5752 5751 5750 5749 5748 5747 5745 5744 5742 5741 5739 5738 5736 5733 5731 5729 5727
5777 5775 5774 5773 5773 5771 5770 5770 5769 5768 5766 5765 5764 5762 5761 5759 5758 5757 5755 5753 5752 5751 5749 5748 5747 5746 5745 5744 5743 5742 5740 5739 5738 5736 5734 5733 5731 5729 5727 5725 5722 5720
5772 5771 5770 5769 5768 5767 5765 5765 5764 5762 5761 5760 5758 5757 5755 5754 5753 5751 5750 5748 5747 5745 5744 5743 5742 5740 5739 5738 5737 5736 5734 5733 5732 5730 5728 5726 5724 5722 5720 5718 5715 5713
5767 5766 5765 5764 5763 5762 5761 5760 5758 5757 5756 5755 5753 5751 5750 5749 5747 5746 5744 5743 5741 5740 5739 5738 5736 5735 5734 5733 5731 5730 5729 5727 5726 5724 5722 5720 5718 5715 5713 5711 5708 5706
5762 5761 5760 5759 5758 5757 5756 5755 5753 5752 5750 5749 5748 5746 5744 5743 5742 5741 5739 5738 5736 5735 5734 5732 5731 5730 5729 5727 5726 5725 5723 5722 5720 5717 5715 5713 5711 5709 5706 5704 5702 5700
5757 5756 5755 5754 5753 5752 5751 5749 5748 5746 5745 5743 5742 5740 5739 5738 5737 5735 5734 5733 5731 5730 5728 5727 5726 5724 5723 5722 5720 5719 5717 5715 5713 5711 5709 5707 5705 5702 5699 5697 5695 5693
5752 5751 5750 5749 5747 5746 5745 5743 5742 5740 5739 5738 5736 5735 5733 5732 5731 5729 5728 5727 5725 5724 5723 5721 5720 5718 5717 5716 5714 5713 5710 5708 5707 5705 5702 5700 5697 5694 5692 5690 5688 5686
5746 5745 5744 5743 5741 5740 5739 5737 5736 5735 5733 5732 5730 5729 5727 5726 5725 5723 5722 5720 5719 5718 5716 5715 5713 5712 5711 5709 5707 5706 5704 5702 5700 5697 5695 5693 5690 5687 5685 5683 5680 5678
5740 5739 5738 5737 5735 5734 5733 5731 5730 5729 5727 5726 5724 5723 5721 5720 5719 5717 5716 5714 5713 5711 5710 5708 5707 5706 5704 5703 5701 5699 5697 5695 5693 5690 5688 5685 5682 5680 5678 5675 5673 5670
5734 5733 5731 5730 5729 5728 5726 5725 5724 5723 5721 5719 5718 5716 5715 5713 5712 5711 5709 5708 5706 5704 5703 5702 5701 5700 5698 5696 5694 5692 5690 5688 5685 5683 5680 5678 5675 5673 5670 5668 5666 5664
5727 5726 5724 5724 5723 5721 5720 5719 5717 5716 5715 5713 5711 5710 5709 5707 5706 5704 5702 5701 5699 5698 5696 5695 5694 5693 5691 5689 5687 5685 5683 5681 5678 5675 5673 5670 5668 5665 5663 5662 5660 5657
5721 5719 5718 5717 5716 5714 5713 5712 5711 5709 5708 5706 5705 5703 5702 5701 5699 5697 5695 5694 5692 5691 5690 5689 5687 5686 5684 5683 5681 5678 5676 5673 5671 5668 5666 5664 5661 5659 5658 5656 5653 5650
5714 5712 5711 5710 5709 5708 5707 5705 5704 5703 5701 5700 5698 5697 5695 5694 5692 5691 5689 5687 5685 5684 5683 5681 5680 5679 5677 5675 5673 5671 5668 5666 5664 5662 5660 5657 5655 5653 5651 5649 5645 5642
5706 5705 5704 5703 5702 5701 5700 5699 5698 5696 5695 5693 5691 5690 5688 5687 5685 5683 5682 5680 5678 5677 5675 5674 5673 5671 5669 5667 5665 5663 5662 5660 5658 5655 5653 5651 5649 5646 5644 5641 5637 5634
5700 5698 5698 5696 5696 5695 5694 5692 5691 5689 5688 5686 5685 5683 5681 5679 5677 5675 5674 5673 5671 5670 5668 5667 5665 5663 5662 5660 5658 5657 5655 5653 5650 5648 5646 5644 5641 5639 5636 5632 5629 5626
5693 5692 5691 5690 5689 5688 5687 5685 5684 5682 5681 5679 5677 5675 5673 5671 5670 5668 5667 5665 5664 5663 5661 5660 5658 5656 5655 5653 5652 5650 5647 5645 5643 5640 5639 5636 5634 5631 5627 5624 5621 5618
5687 5686 5685 5683 5682 5681 5679 5678 5677 5675 5673 5671 5669 5668 5666 5664 5663 5661 5660 5658 5657 5656 5654 5653 5651 5649 5648 5646 5643 5641 5639 5637 5635 5633 5631 5629 5626 5623 5619 5616 5613 5610
5681 5679 5678 5676 5675 5674 5672 5671 5669 5668 5666 5664 5662 5661 5659 5658 5656 5655 5653 5652 5650 5649 5647 5645 5644 5641 5639 5637 5635 5632 5631 5630 5628 5626 5624 5621 5618 5616 5612 5608 5605 5601
5673 5672 5671 5669 5668 5666 5665 5664 5662 5660 5659 5657 5655 5654 5652 5651 5650 5648 5647 5645 5643 5642 5640 5638 5636 5633 5631 5629 5627 5626 5624 5623 5621 5619 5617 5615 5612 5609 5605 5600 5596 5592
5665 5664 5663 5662 5660 5659 5658 5656 5655 5653 5651 5650 5648 5647 5645 5644 5643 5641 5640 5638 5637 5635 5633 5630 5628 5626 5624 5623 5621 5619 5618 5616 5614 5612 5610 5608 5604 5600 5596 5592 5587 5581
5658 5656 5655 5654 5653 5652 5651 5649 5647 5646 5644 5643 5641 5639 5638 5637 5635 5633 5632 5631 5630 5628 5626 5623 5620 5618 5617 5615 5613 5612 5610 5608 5606 5605 5603 5599 5595 5591 5586 5581 5576 5570
5650 5649 5648 5647 5646 5645 5643 5642 5640 5638 5637 5635 5633 5632 5631 5629 5627 5626 5624 5623 5621 5620 5618 5616 5613 5610 5608 5607 5605 5603 5602 5600 5598 5596 5593 5590 5586 5581 5576 5571 5566 5561
5643 5642 5641 5640 5638 5637 5635 5634 5632 5631 5629 5628 5626 5624 5623 5621 5620 5618 5616 5614 5613 5611 5610 5607 5604 5602 5600 5598 5596 5595 5593 5591 5588 5586 5583 5579 5576 5571 5566 5562 5557 5553
5636 5634 5633 5632 5630 5629 5628 5626 5625 5623 5621 5620 5618 5616 5615 5613 5612 5611 5609 5607 5605 5603 5600 5598 5596 5594 5592 5589 5587 5585 5583 5581 5578 5576 5573 5569 5566 5562 5558 5553 5548 5544